Houma, LA

12:57 AM CDT on March 30, 2017 (GMT -0500)
Houma-terrebonne

Weather History for KHUM - October, 2011

Change the Weather History Date:

Monday, October 17, 2011

  Actual Average Record
Temperature  
Mean Temperature 72 °F -  
Max Temperature 84 °F 80 °F 89 °F (1947)
Min Temperature 59 °F 58 °F 35 °F (1943)
Cooling Degree Days 6    
Growing Degree Days 22 (Base 50)    
Moisture  
Dew Point 64 °F    
Average Humidity 94    
Maximum Humidity 100    
Minimum Humidity 55    
Precipitation  
Precipitation 0.00 in - - ()
Sea Level Pressure  
Sea Level Pressure 29.92 in    
Wind  
Wind Speed 2 mph (ENE)    
Max Wind Speed 12 mph    
Max Gust Speed -    
Visibility 4 miles    
Events Fog    
Averages and records for this station are not official NWS values.
T = Trace of Precipitation, MM = Missing Value Source: NWS Daily Summary

Daily Weather History Graph

Daily Weather History Graph

Search for Another Location

Airport or City:

Trip Planner

Search our weather history database for the weather conditions in past years. The results will help you decide how hot, cold, wet, or windy it might be!

Date:

Astronomy

Oct. 17, 2011 Rise Set
Actual Time 7:05 AM CDT 6:30 PM CDT
Civil Twilight 6:41 AM CDT 6:54 PM CDT
Nautical Twilight 6:13 AM CDT 7:22 PM CDT
Astronomical Twilight 5:45 AM CDT 7:49 PM CDT
Moon 10:28 PM CDT (10/17) 11:53 AM CDT (10/17)
Length of Visible Light 12h 13m
Length of Day
11h 24m
Waning Gibbous, 74% of the Moon is Illuminated
Oct 17
Waning Gibbous
Oct 19
Last Quarter
Oct 26
New
Nov 2
First Quarter
Nov 10
Full

Hourly Weather History & Observations

Time (CDT) Temp. Heat Index Dew Point Humidity Pressure Visibility Wind Dir Wind Speed Gust Speed Precip Events Conditions
12:15 AM 62.6 °F - 62.6 °F 100% 30.02 in 2.5 mi Calm Calm - N/A   Clear
12:35 AM 62.6 °F - 62.6 °F 100% 30.01 in 0.5 mi Calm Calm - N/A Fog Fog
12:55 AM 62.6 °F - 62.6 °F 100% 30.00 in 0.5 mi Calm Calm - N/A Fog Fog
1:15 AM 60.8 °F - 60.8 °F 100% 30.00 in 0.2 mi Calm Calm - N/A Fog Fog
1:35 AM 60.8 °F - 60.8 °F 100% 30.00 in 1.0 mi Calm Calm - N/A   Mist
1:55 AM 60.8 °F - 60.8 °F 100% 30.00 in 1.0 mi Calm Calm - N/A   Mist
2:15 AM 60.8 °F - 60.8 °F 100% 29.99 in 0.8 mi Calm Calm - N/A   Mist
2:35 AM 60.8 °F - 60.8 °F 100% 29.99 in 0.5 mi Calm Calm - N/A Fog Fog
2:55 AM 60.8 °F - 60.8 °F 100% 29.99 in 0.2 mi Calm Calm - N/A Fog Fog
3:15 AM 60.8 °F - 60.8 °F 100% 29.98 in 0.2 mi Calm Calm - N/A Fog Fog
3:35 AM 60.8 °F - 60.8 °F 100% 29.98 in 0.2 mi Calm Calm - N/A Fog Fog
3:55 AM 59.0 °F - 59.0 °F 100% 29.97 in 0.2 mi Calm Calm - N/A Fog Fog
4:15 AM 59.0 °F - 59.0 °F 100% 29.97 in 0.2 mi Calm Calm - N/A Fog Fog
4:35 AM 59.0 °F - 59.0 °F 100% 29.97 in 0.2 mi Calm Calm - N/A Fog Fog
4:55 AM 59.0 °F - 59.0 °F 100% 29.97 in 0.2 mi Calm Calm - N/A Fog Fog
5:35 AM 60.8 °F - 60.8 °F 100% 29.97 in 0.2 mi Calm Calm - N/A Fog Fog
5:50 AM 60.8 °F - 60.8 °F 100% 29.99 in 0.5 mi North 4.6 mph - N/A Fog Fog
5:55 AM 59.0 °F - 59.0 °F 100% 29.97 in 0.2 mi Calm Calm - N/A Fog Fog
6:50 AM 60.8 °F - 60.8 °F 100% 29.98 in 0.2 mi NNE 4.6 mph - N/A Fog Fog
7:50 AM 60.8 °F - 60.8 °F 100% 29.98 in 0.2 mi North 5.8 mph - N/A Fog Fog
8:37 AM 62.6 °F - 62.6 °F 100% 29.98 in 0.2 mi NNE 3.5 mph - N/A Fog Fog
8:50 AM 62.6 °F - 62.6 °F 100% 29.98 in 0.1 mi NNE 3.5 mph - N/A Fog Fog
9:11 AM 64.4 °F - 64.4 °F 100% 29.98 in 0.5 mi NNE 3.5 mph - N/A   Overcast
9:33 AM 66.2 °F - 66.2 °F 100% 29.98 in 3.0 mi NNE 3.5 mph - N/A   Scattered Clouds
9:50 AM 68.0 °F - 68.0 °F 100% 29.98 in 5.0 mi NNE 3.5 mph - N/A   Scattered Clouds
10:50 AM 68.0 °F - 68.0 °F 100% 29.98 in 7.0 mi NE 5.8 mph - N/A   Partly Cloudy
11:50 AM 82.4 °F 86.3 °F 69.8 °F 66% 29.96 in 7.0 mi East 8.1 mph - N/A   Clear
12:50 PM 84.2 °F 86.6 °F 66.2 °F 55% 29.93 in 7.0 mi East 10.4 mph - N/A   Clear
2:50 PM 84.2 °F 86.6 °F 66.2 °F 55% 29.85 in 7.0 mi SSE 6.9 mph - N/A   Clear
3:50 PM 84.2 °F 86.6 °F 66.2 °F 55% 29.84 in 7.0 mi SSE 11.5 mph - N/A   Clear
4:50 PM 82.4 °F 84.6 °F 66.2 °F 58% 29.83 in 7.0 mi SSE 11.5 mph - N/A   Clear
5:50 PM 80.6 °F 83.9 °F 69.8 °F 70% 29.82 in 7.0 mi SE 11.5 mph - N/A   Partly Cloudy
7:15 PM 73.4 °F - 69.8 °F 88% 29.83 in 10.0 mi East 5.8 mph - N/A   Clear
7:35 PM 71.6 °F - 69.8 °F 94% 29.83 in 7.0 mi East 4.6 mph - N/A   Clear
7:55 PM 71.6 °F - 69.8 °F 94% 29.84 in 10.0 mi East 4.6 mph - N/A   Clear
8:15 PM 71.6 °F - 69.8 °F 94% 29.84 in 10.0 mi NE 4.6 mph - N/A   Clear
8:35 PM 69.8 °F - 69.8 °F 100% 29.84 in 10.0 mi NE 4.6 mph - N/A   Clear
8:55 PM 69.8 °F - 69.8 °F 100% 29.84 in 7.0 mi NE 3.5 mph - N/A   Clear
9:15 PM 69.8 °F - 68.0 °F 94% 29.84 in 7.0 mi NE 3.5 mph - N/A   Clear
9:35 PM 66.2 °F - 66.2 °F 100% 29.83 in 7.0 mi Calm Calm - N/A   Scattered Clouds
9:55 PM 66.2 °F - 66.2 °F 100% 29.83 in 7.0 mi Calm Calm - N/A   Clear
10:15 PM 64.4 °F - 64.4 °F 100% 29.83 in 7.0 mi Calm Calm - N/A   Scattered Clouds
10:35 PM 66.2 °F - 66.2 °F 100% 29.83 in 7.0 mi Calm Calm - N/A   Scattered Clouds
10:55 PM 66.2 °F - 66.2 °F 100% 29.82 in 7.0 mi Calm Calm - N/A   Clear
11:15 PM 64.4 °F - 64.4 °F 100% 29.81 in 7.0 mi Calm Calm - N/A   Clear
11:35 PM 64.4 °F - 64.4 °F 100% 29.81 in 5.0 mi Calm Calm - N/A   Clear
11:55 PM 66.2 °F - 66.2 °F 100% 29.80 in 7.0 mi Calm Calm - N/A   Clear